Back to catalog

SECOR 13

EGRS 13

AliveMilitarySSO
NORAD 3891·PAYLOAD·🇺🇸 United States

Launched Apr 14, 1969 from Vandenberg Space Force Base

Loading…

Next Passes (next 24 hours)

TLE

FreshSource: Space-Track

Epoch: Sep 14, 2026, 03:25 UTC

1 03891U 69037B   26257.14243282 -.00000027  00000-0  26582-4 0  9991
2 03891  99.6323 124.7114 0040009  33.7957 130.8402 13.42979983813692

Track SECOR 13 in real time with AllMySat

Download on the App Store